Date,TemperatureHighF,TemperatureAvgF,TemperatureLowF,DewpointHighF,DewpointAvgF,DewpointLowF,HumidityHigh,HumidityAvg,HumidityLow,PressureMaxIn,PressureMinIn,WindSpeedMaxMPH,WindSpeedAvgMPH,GustSpeedMaxMPH,PrecipitationSumIn
2013-1-1,12,2,-6,-100,-100,-100,0,0,100,0.00,40.00,0,-999,0,0.01
2013-1-2,16,4,-7,-100,-100,-100,0,0,100,0.00,40.00,0,-999,0,0.00
2013-1-3,23,-3,-12,-100,-100,-100,0,0,100,0.00,40.00,0,-999,0,0.00
2013-1-4,31,11,-1,-100,-100,-100,0,0,100,0.00,40.00,0,-999,0,0.00
2013-1-5,30,10,1,-100,-100,-100,0,0,100,0.00,40.00,0,-999,0,0.00
2013-1-6,33,14,2,-100,-100,-100,0,0,100,0.00,40.00,0,-999,0,0.00
2013-1-7,35,16,6,-100,-100,-100,0,0,100,0.00,40.00,0,-999,0,0.00
2013-1-8,31,16,7,-100,-100,-100,0,0,100,0.00,40.00,0,-999,0,0.00
2013-1-9,45,20,9,-100,-100,-100,0,0,100,0.00,40.00,0,-999,0,0.00
2013-1-10,40,24,12,-100,-100,-100,0,0,100,0.00,40.00,0,-999,0,0.00
2013-1-11,26,12,-5,-100,-100,-100,0,0,100,0.00,40.00,0,-999,0,0.01
2013-1-12,7,-6,-17,-100,-100,-100,0,0,100,0.00,40.00,0,-999,0,0.00
2013-1-13,5,-8,-17,-100,-100,-100,0,0,100,0.00,40.00,0,-999,0,0.00
2013-1-14,6,-8,-15,-100,-100,-100,0,0,100,0.00,40.00,0,-999,0,0.00
2013-1-15,11,-3,-21,-100,-100,-100,0,0,100,0.00,40.00,0,-999,0,0.00
2013-1-16,30,14,5,-100,-100,-100,0,0,100,0.00,40.00,0,-999,0,0.00
2013-1-17,34,16,6,-100,-100,-100,0,0,100,0.00,40.00,0,-999,0,0.00
2013-1-18,36,16,7,-100,-100,-100,0,0,100,0.00,40.00,0,-999,0,0.00
2013-1-19,35,14,7,-100,-100,-100,0,0,100,0.00,40.00,0,-999,0,0.00
2013-1-20,35,17,7,-100,-100,-100,0,0,100,0.00,40.00,0,-999,0,0.00
2013-1-21,37,18,6,-100,-100,-100,0,0,100,0.00,40.00,0,-999,0,0.00
2013-1-22,43,21,11,-100,-100,-100,0,0,100,0.00,40.00,0,-999,0,0.00
2013-1-23,47,25,12,-100,-100,-100,0,0,100,0.00,40.00,0,-999,0,0.00
2013-1-24,36,27,18,-100,-100,-100,0,0,100,0.00,40.00,0,-999,0,0.01
2013-1-25,35,31,29,-100,-100,-100,0,0,100,0.00,40.00,0,-999,0,0.01
2013-1-26,39,30,16,-100,-100,-100,0,0,100,0.00,40.00,0,-999,0,0.01
2013-1-27,36,28,19,-100,-100,-100,0,0,100,0.00,40.00,0,-999,0,0.01
2013-1-28,28,22,15,-100,-100,-100,0,0,100,0.00,40.00,0,-999,0,0.01
2013-1-29,14,7,1,-100,-100,-100,0,0,100,0.00,40.00,0,-999,0,0.01
2013-1-30,17,9,2,-100,-100,-100,0,0,100,0.00,40.00,0,-999,0,0.01
2013-1-31,27,20,15,-100,-100,-100,0,0,100,0.00,40.00,0,-999,0,0.01
2013-2-1,27,20,12,-100,-100,-100,0,0,100,0.00,40.00,0,-999,0,0.00
2013-2-2,34,16,7,-100,-100,-100,0,0,100,0.00,40.00,0,-999,0,0.00
2013-2-3,36,20,9,-100,-100,-100,0,0,100,0.00,40.00,0,-999,0,0.00
2013-2-4,36,18,4,-100,-100,-100,0,0,100,0.00,40.00,0,-999,0,0.00
2013-2-5,41,21,8,-100,-100,-100,0,0,100,0.00,40.00,0,-999,0,0.00
2013-2-6,35,23,14,-100,-100,-100,0,0,100,0.00,40.00,0,-999,0,0.01
2013-2-7,33,14,2,-100,-100,-100,0,0,100,0.00,40.00,0,-999,0,0.01
2013-2-8,39,24,7,-100,-100,-100,0,0,100,0.00,40.00,0,-999,0,0.00
2013-2-9,27,20,12,-100,-100,-100,0,0,100,0.00,40.00,0,-999,0,0.02
2013-2-10,19,12,4,-100,-100,-100,0,0,100,0.00,40.00,0,-999,0,0.01
2013-2-11,18,8,-1,-100,-100,-100,0,0,100,0.00,40.00,0,-999,0,0.00
2013-2-12,23,4,-10,-100,-100,-100,0,0,100,0.00,40.00,0,-999,0,0.00
2013-2-13,26,16,9,-100,-100,-100,0,0,100,0.00,40.00,0,-999,0,0.00
2013-2-14,24,18,13,-100,-100,-100,0,0,100,0.00,40.00,0,-999,0,0.01
2013-2-15,20,15,4,-100,-100,-100,0,0,100,0.00,40.00,0,-999,0,0.01
2013-2-16,36,16,5,-100,-100,-100,0,0,100,0.00,40.00,0,-999,0,0.00
2013-2-17,37,21,9,-100,-100,-100,0,0,100,0.00,40.00,0,-999,0,0.00
2013-2-18,22,10,-3,-100,-100,-100,0,0,100,0.00,40.00,0,-999,0,0.01
2013-2-19,36,17,-3,-100,-100,-100,0,0,100,0.00,40.00,0,-999,0,0.00
2013-2-20,36,22,10,-100,-100,-100,0,0,100,0.00,40.00,0,-999,0,0.01
2013-2-21,24,18,6,-100,-100,-100,0,0,100,0.00,40.00,0,-999,0,0.02
2013-2-22,18,9,1,-100,-100,-100,0,0,100,0.00,40.00,0,-999,0,0.00
2013-2-23,26,13,-3,-100,-100,-100,0,0,100,0.00,40.00,0,-999,0,0.01
2013-2-24,18,12,7,-100,-100,-100,0,0,100,0.00,40.00,0,-999,0,0.01
2013-2-25,28,10,-2,-100,-100,-100,0,0,100,0.00,40.00,0,-999,0,0.01
2013-2-26,18,11,3,-100,-100,-100,0,0,100,0.00,40.00,0,-999,0,0.01
2013-2-27,21,5,-5,-100,-100,-100,0,0,100,0.00,40.00,0,-999,0,0.01
2013-2-28,24,9,-8,-100,-100,-100,0,0,100,0.00,40.00,0,-999,0,0.00
2013-3-1,34,23,16,-100,-100,-100,0,0,100,0.00,40.00,0,-999,0,0.01
2013-3-2,42,28,18,-100,-100,-100,0,0,100,0.00,40.00,0,-999,0,0.00
2013-3-3,38,29,20,-100,-100,-100,0,0,100,0.00,40.00,0,-999,0,0.01
2013-3-4,29,22,-1,-100,-100,-100,0,0,100,0.00,40.00,0,-999,0,0.02
2013-3-5,39,16,-5,-100,-100,-100,0,0,100,0.00,40.00,0,-999,0,0.00
2013-3-6,45,27,12,-100,-100,-100,0,0,100,0.00,40.00,0,-999,0,0.00
2013-3-7,47,30,20,-100,-100,-100,0,0,100,0.00,40.00,0,-999,0,0.00
2013-3-8,43,30,20,-100,-100,-100,0,0,100,0.00,40.00,0,-999,0,0.00
2013-3-9,28,23,16,-100,-100,-100,0,0,100,0.00,40.00,0,-999,0,0.02
2013-3-10,30,16,5,-100,-100,-100,0,0,100,0.00,40.00,0,-999,0,0.02
2013-3-11,34,23,9,-100,-100,-100,0,0,100,0.00,40.00,0,-999,0,0.01
2013-3-12,39,28,21,-100,-100,-100,0,0,100,0.00,40.00,0,-999,0,0.01
2013-3-13,46,29,17,-100,-100,-100,0,0,100,0.00,40.00,0,-999,0,0.00
2013-3-14,50,33,21,-100,-100,-100,0,0,100,0.00,40.00,0,-999,0,0.00
2013-3-15,52,35,26,-100,-100,-100,0,0,100,0.00,40.00,0,-999,0,0.00
2013-3-16,38,32,27,-100,-100,-100,0,0,100,0.00,40.00,0,-999,0,0.00
2013-3-17,32,26,21,-100,-100,-100,0,0,100,0.00,40.00,0,-999,0,0.01
2013-3-18,30,23,17,-100,-100,-100,0,0,100,0.00,40.00,0,-999,0,0.01
2013-3-19,36,27,10,-100,-100,-100,0,0,100,0.00,40.00,0,-999,0,0.00
2013-3-20,40,26,8,-100,-100,-100,0,0,100,0.00,40.00,0,-999,0,0.01
2013-3-21,31,26,17,-100,-100,-100,0,0,100,0.00,40.00,0,-999,0,0.03
2013-3-22,31,20,5,-100,-100,-100,0,0,100,0.00,40.00,0,-999,0,0.03
2013-3-23,17,11,6,-100,-100,-100,0,0,100,0.00,40.00,0,-999,0,0.01
2013-3-24,14,5,-8,-100,-100,-100,0,0,100,0.00,40.00,0,-999,0,0.01
2013-3-25,29,7,-10,-100,-100,-100,0,0,100,0.00,40.00,0,-999,0,0.00
2013-3-26,42,26,2,-100,-100,-100,0,0,100,0.00,40.00,0,-999,0,0.01
2013-3-27,45,33,23,-100,-100,-100,0,0,100,0.00,40.00,0,-999,0,0.00
2013-3-28,47,32,20,-100,-100,-100,0,0,100,0.00,40.00,0,-999,0,0.00
2013-3-29,44,35,28,-100,-100,-100,0,0,100,0.00,40.00,0,-999,0,0.00
2013-3-30,46,33,25,-100,-100,-100,0,0,100,0.00,40.00,0,-999,0,0.00
2013-3-31,50,33,18,-100,-100,-100,0,0,100,0.00,40.00,0,-999,0,0.00
2013-4-1,48,37,26,-100,-100,-100,0,0,100,0.00,40.00,0,-999,0,0.00
2013-4-2,39,30,21,-100,-100,-100,0,0,100,0.00,40.00,0,-999,0,0.01
2013-4-3,44,31,21,-100,-100,-100,0,0,100,0.00,40.00,0,-999,0,0.01
2013-4-4,51,34,22,-100,-100,-100,0,0,100,0.00,40.00,0,-999,0,0.00
2013-4-5,49,37,29,-100,-100,-100,0,0,100,0.00,40.00,0,-999,0,0.00
2013-4-6,44,34,27,-100,-100,-100,0,0,100,0.00,40.00,0,-999,0,0.01
2013-4-7,41,33,25,-100,-100,-100,0,0,100,0.00,40.00,0,-999,0,0.01
2013-4-8,45,36,29,-100,-100,-100,0,0,100,0.00,40.00,0,-999,0,0.00
2013-4-9,35,28,15,-100,-100,-100,0,0,100,0.00,40.00,0,-999,0,0.01
2013-4-10,29,18,8,-100,-100,-100,0,0,100,0.00,40.00,0,-999,0,0.00
2013-4-11,38,28,16,-100,-100,-100,0,0,100,0.00,40.00,0,-999,0,0.01
2013-4-12,44,31,23,-100,-100,-100,0,0,100,0.00,40.00,0,-999,0,0.01
2013-4-13,44,33,21,-100,-100,-100,0,0,100,0.00,40.00,0,-999,0,0.01
2013-4-14,32,27,20,-100,-100,-100,0,0,100,0.00,40.00,0,-999,0,0.04
2013-4-15,35,28,21,-100,-100,-100,0,0,100,0.00,40.00,0,-999,0,0.04
2013-4-16,42,32,22,-100,-100,-100,0,0,100,0.00,40.00,0,-999,0,0.02
2013-4-17,29,23,11,-100,-100,-100,0,0,100,0.00,40.00,0,-999,0,0.01
2013-4-18,20,11,3,-100,-100,-100,0,0,100,0.00,40.00,0,-999,0,0.01
2013-4-19,36,21,4,-100,-100,-100,0,0,100,0.00,40.00,0,-999,0,0.01
2013-4-20,38,29,21,-100,-100,-100,0,0,100,0.00,40.00,0,-999,0,0.01
2013-4-21,41,32,23,-100,-100,-100,0,0,100,0.00,40.00,0,-999,0,0.02
2013-4-22,40,33,28,-100,-100,-100,0,0,100,0.00,40.00,0,-999,0,0.01
2013-4-23,33,26,21,-100,-100,-100,0,0,100,0.00,40.00,0,-999,0,0.02
2013-4-24,39,30,16,-100,-100,-100,0,0,100,0.00,40.00,0,-999,0,0.00
2013-4-25,49,32,13,-100,-100,-100,0,0,100,0.00,40.00,0,-999,0,0.00
2013-4-26,46,36,24,-100,-100,-100,0,0,100,0.00,40.00,0,-999,0,0.00
2013-4-27,53,36,22,-100,-100,-100,0,0,100,0.00,40.00,0,-999,0,0.00
2013-4-28,56,40,26,-100,-100,-100,0,0,100,0.00,40.00,0,-999,0,0.00
2013-4-29,57,46,31,-100,-100,-100,0,0,100,0.00,40.00,0,-999,0,0.00
2013-4-30,56,44,33,-100,-100,-100,0,0,100,0.00,40.00,0,-999,0,0.00
2013-5-1,38,29,19,-100,-100,-100,0,0,100,0.00,40.00,0,-999,0,0.02
2013-5-2,37,23,11,-100,-100,-100,0,0,100,0.00,40.00,0,-999,0,0.01
2013-5-3,51,33,13,-100,-100,-100,0,0,100,0.00,40.00,0,-999,0,0.00
2013-5-4,49,35,23,-100,-100,-100,0,0,100,0.00,40.00,0,-999,0,0.00
2013-5-5,51,40,29,-100,-100,-100,0,0,100,0.00,40.00,0,-999,0,0.00
2013-5-6,49,38,31,-100,-100,-100,0,0,100,0.00,40.00,0,-999,0,0.01
2013-5-7,44,36,32,-100,-100,-100,0,0,100,0.00,40.00,0,-999,0,0.02
2013-5-8,38,33,28,-100,-100,-100,0,0,100,0.00,40.00,0,-999,0,0.02
2013-5-9,46,35,30,-100,-100,-100,0,0,100,0.00,40.00,0,-999,0,0.02
2013-5-10,48,36,24,-100,-100,-100,0,0,100,0.00,40.00,0,-999,0,0.00
2013-5-11,52,39,26,-100,-100,-100,0,0,100,0.00,40.00,0,-999,0,0.00
2013-5-12,53,42,33,-100,-100,-100,0,0,100,0.00,40.00,0,-999,0,0.00
2013-5-13,60,44,34,-100,-100,-100,0,0,100,0.00,40.00,0,-999,0,0.00
2013-5-14,59,42,33,-100,-100,-100,0,0,100,0.00,40.00,0,-999,0,0.00
2013-5-15,54,42,33,-100,-100,-100,0,0,100,0.00,40.00,0,-999,0,0.01
2013-5-16,59,43,32,-100,-100,-100,0,0,100,0.00,40.00,0,-999,0,0.01
2013-5-17,61,45,33,-100,-100,-100,0,0,100,0.00,40.00,0,-999,0,0.00
2013-5-18,52,39,31,-100,-100,-100,0,0,100,0.00,40.00,0,-999,0,0.00
2013-5-19,41,34,31,-100,-100,-100,0,0,100,0.00,40.00,0,-999,0,0.01
2013-5-20,40,34,30,-100,-100,-100,0,0,100,0.00,40.00,0,-999,0,0.02
2013-5-21,50,39,30,-100,-100,-100,0,0,100,0.00,40.00,0,-999,0,0.01
2013-5-22,59,43,30,-100,-100,-100,0,0,100,0.00,40.00,0,-999,0,0.00
2013-5-23,64,49,33,-100,-100,-100,0,0,100,0.00,40.00,0,-999,0,0.00
2013-5-24,62,46,34,-100,-100,-100,0,0,100,0.00,40.00,0,-999,0,0.00
2013-5-25,65,46,33,-100,-100,-100,0,0,100,0.00,40.00,0,-999,0,0.00
2013-5-26,63,48,33,-100,-100,-100,0,0,100,0.00,40.00,0,-999,0,0.00
2013-5-27,58,45,33,-100,-100,-100,0,0,100,0.00,40.00,0,-999,0,0.00
2013-5-28,57,44,35,-100,-100,-100,0,0,100,0.00,40.00,0,-999,0,0.00
2013-5-29,43,37,31,-100,-100,-100,0,0,100,0.00,40.00,0,-999,0,0.01
2013-5-30,51,39,32,-100,-100,-100,0,0,100,0.00,40.00,0,-999,0,0.01
2013-5-31,48,40,30,-100,-100,-100,0,0,100,0.00,40.00,0,-999,0,0.00
2013-6-1,56,41,27,-100,-100,-100,0,0,100,0.00,40.00,0,-999,0,0.00
2013-6-2,65,47,30,-100,-100,-100,0,0,100,0.00,40.00,0,-999,0,0.00
2013-6-3,62,49,37,-100,-100,-100,0,0,100,0.00,40.00,0,-999,0,0.00
2013-6-4,59,48,35,-100,-100,-100,0,0,100,0.00,40.00,0,-999,0,0.00
2013-6-5,60,48,35,-100,-100,-100,0,0,100,0.00,40.00,0,-999,0,0.00
2013-6-6,63,47,32,-100,-100,-100,0,0,100,0.00,40.00,0,-999,0,0.00
2013-6-7,60,45,35,-100,-100,-100,0,0,100,0.00,40.00,0,-999,0,0.00
2013-6-8,65,50,39,-100,-100,-100,0,0,100,0.00,40.00,0,-999,0,0.00
2013-6-9,70,52,35,-100,-100,-100,0,0,100,0.00,40.00,0,-999,0,0.00
2013-6-10,73,57,44,-100,-100,-100,0,0,100,0.00,40.00,0,-999,0,0.00
2013-6-11,68,56,43,-100,-100,-100,0,0,100,0.00,40.00,0,-999,0,0.00
2013-6-12,71,54,37,-100,-100,-100,0,0,100,0.00,40.00,0,-999,0,0.00
2013-6-13,68,57,45,-100,-100,-100,0,0,100,0.00,40.00,0,-999,0,0.00
2013-6-14,68,54,41,-100,-100,-100,0,0,100,0.00,40.00,0,-999,0,0.00
2013-6-15,66,51,35,-100,-100,-100,0,0,100,0.00,40.00,0,-999,0,0.00
2013-6-16,57,46,38,-100,-100,-100,0,0,100,0.00,40.00,0,-999,0,0.01
2013-6-17,65,49,37,-100,-100,-100,0,0,100,0.00,40.00,0,-999,0,0.01
2013-6-18,67,53,38,-100,-100,-100,0,0,100,0.00,40.00,0,-999,0,0.00
2013-6-19,69,54,38,-100,-100,-100,0,0,100,0.00,40.00,0,-999,0,0.00
2013-6-20,68,49,39,-100,-100,-100,0,0,100,0.00,40.00,0,-999,0,0.00
2013-6-22,65,58,43,-100,-100,-100,0,0,100,0.00,40.00,0,-999,0,0.00
2013-6-23,65,52,36,-100,-100,-100,0,0,100,0.00,40.00,0,-999,0,0.00
2013-6-24,66,55,39,-100,-100,-100,0,0,100,0.00,40.00,0,-999,0,1.00
2013-6-25,67,53,41,-100,-100,-100,0,0,100,0.00,40.00,0,-999,0,0.01
2013-6-26,74,56,40,-100,-100,-100,0,0,100,0.00,40.00,0,-999,0,0.00
2013-6-27,77,59,43,-100,-100,-100,0,0,100,0.00,40.00,0,-999,0,0.00
2013-6-28,78,61,45,-100,-100,-100,0,0,100,0.00,40.00,0,-999,0,0.00
2013-6-29,70,58,47,-100,-100,-100,0,0,100,0.00,40.00,0,-999,0,0.00
2013-6-30,66,55,44,-100,-100,-100,0,0,100,0.00,40.00,0,-999,0,0.00
2013-7-1,69,53,40,-100,-100,-100,0,0,100,0.00,40.00,0,-999,0,0.00
2013-7-2,68,53,42,-100,-100,-100,0,0,100,0.00,40.00,0,-999,0,0.00
2013-7-3,68,53,39,-100,-100,-100,0,0,100,0.00,40.00,0,-999,0,0.00
2013-7-4,68,55,40,-100,-100,-100,0,0,100,0.00,40.00,0,-999,0,0.00
2013-7-5,67,56,47,-100,-100,-100,0,0,100,0.00,40.00,0,-999,0,0.00
2013-7-6,66,53,44,-100,-100,-100,0,0,100,0.00,40.00,0,-999,0,0.02
2013-7-7,70,56,44,-100,-100,-100,0,0,100,0.00,40.00,0,-999,0,0.00
2013-7-8,69,52,44,-100,-100,-100,0,0,100,0.00,40.00,0,-999,0,0.01
2013-7-9,72,56,45,-100,-100,-100,0,0,100,0.00,40.00,0,-999,0,0.00
2013-7-10,74,58,45,-100,-100,-100,0,0,100,0.00,40.00,0,-999,0,0.00
2013-7-11,74,57,45,-100,-100,-100,0,0,100,0.00,40.00,0,-999,0,0.00
2013-7-12,65,53,47,-100,-100,-100,0,0,100,0.00,40.00,0,-999,0,0.00
2013-7-13,67,56,46,-100,-100,-100,0,0,100,0.00,40.00,0,-999,0,0.01
2013-7-14,67,55,45,-100,-100,-100,0,0,100,0.00,40.00,0,-999,0,0.00
2013-7-15,68,51,42,-100,-100,-100,0,0,100,0.00,40.00,0,-999,0,0.00
2013-7-16,69,55,41,-100,-100,-100,0,0,100,0.00,40.00,0,-999,0,0.00
2013-7-17,68,55,47,-100,-100,-100,0,0,100,0.00,40.00,0,-999,0,0.00
2013-7-18,64,52,44,-100,-100,-100,0,0,100,0.00,40.00,0,-999,0,0.05
2013-7-19,65,52,45,-100,-100,-100,0,0,100,0.00,40.00,0,-999,0,0.01
2013-7-20,70,53,43,-100,-100,-100,0,0,100,0.00,40.00,0,-999,0,0.01
2013-7-21,73,56,42,-100,-100,-100,0,0,100,0.00,40.00,0,-999,0,0.00
2013-7-22,72,56,46,-100,-100,-100,0,0,100,0.00,40.00,0,-999,0,0.00
2013-7-23,73,57,41,-100,-100,-100,0,0,100,0.00,40.00,0,-999,0,0.00
2013-7-24,65,55,47,-100,-100,-100,0,0,100,0.00,40.00,0,-999,0,0.00
2013-7-25,64,53,44,-100,-100,-100,0,0,100,0.00,40.00,0,-999,0,0.01
2013-7-26,69,55,41,-100,-100,-100,0,0,100,0.00,40.00,0,-999,0,0.00
2013-7-27,66,52,43,-100,-100,-100,0,0,100,0.00,40.00,0,-999,0,0.00
2013-7-28,54,49,45,-100,-100,-100,0,0,100,0.00,40.00,0,-999,0,0.03
2013-7-29,59,49,42,-100,-100,-100,0,0,100,0.00,40.00,0,-999,0,0.01
2013-7-30,62,50,40,-100,-100,-100,0,0,100,0.00,40.00,0,-999,0,0.00
2013-7-31,69,53,40,-100,-100,-100,0,0,100,0.00,40.00,0,-999,0,0.00
2013-8-1,64,50,44,-100,-100,-100,0,0,100,0.00,40.00,0,-999,0,0.01
2013-8-2,64,53,42,-100,-100,-100,0,0,100,0.00,40.00,0,-999,0,0.01
2013-8-3,65,51,43,-100,-100,-100,0,0,100,0.00,40.00,0,-999,0,0.01
2013-8-4,64,52,42,-100,-100,-100,0,0,100,0.00,40.00,0,-999,0,0.00
2013-8-5,59,50,42,-100,-100,-100,0,0,100,0.00,40.00,0,-999,0,0.01
2013-8-6,61,49,42,-100,-100,-100,0,0,100,0.00,40.00,0,-999,0,0.01
2013-8-7,57,47,41,-100,-100,-100,0,0,100,0.00,40.00,0,-999,0,0.00
2013-8-8,55,46,40,-100,-100,-100,0,0,100,0.00,40.00,0,-999,0,0.02
2013-8-9,57,46,37,-100,-100,-100,0,0,100,0.00,40.00,0,-999,0,0.02
2013-8-10,63,49,38,-100,-100,-100,0,0,100,0.00,40.00,0,-999,0,0.00
2013-8-11,66,47,37,-100,-100,-100,0,0,100,0.00,40.00,0,-999,0,0.00
2013-8-12,61,49,38,-100,-100,-100,0,0,100,0.00,40.00,0,-999,0,0.00
2013-8-13,62,48,38,-100,-100,-100,0,0,100,0.00,40.00,0,-999,0,0.00
2013-8-14,59,46,38,-100,-100,-100,0,0,100,0.00,40.00,0,-999,0,0.00
2013-8-15,66,51,38,-100,-100,-100,0,0,100,0.00,40.00,0,-999,0,0.00
2013-8-16,68,56,40,-100,-100,-100,0,0,100,0.00,40.00,0,-999,0,0.00
2013-8-17,69,56,42,-100,-100,-100,0,0,100,0.00,40.00,0,-999,0,0.00
2013-8-18,69,51,42,-100,-100,-100,0,0,100,0.00,40.00,0,-999,0,0.02
2013-8-19,72,53,42,-100,-100,-100,0,0,100,0.00,40.00,0,-999,0,0.01
2013-8-20,65,53,43,-100,-100,-100,0,0,100,0.00,40.00,0,-999,0,0.00
2013-8-21,69,54,42,-100,-100,-100,0,0,100,0.00,40.00,0,-999,0,0.00
2013-8-22,63,54,48,-100,-100,-100,0,0,100,0.00,40.00,0,-999,0,0.01
2013-8-23,62,52,43,-100,-100,-100,0,0,100,0.00,40.00,0,-999,0,0.01
2013-8-24,63,52,42,-100,-100,-100,0,0,100,0.00,40.00,0,-999,0,0.00
2013-8-25,61,52,45,-100,-100,-100,0,0,100,0.00,40.00,0,-999,0,0.00
2013-8-26,60,52,45,-100,-100,-100,0,0,100,0.00,40.00,0,-999,0,0.00
2013-8-27,67,49,44,-100,-100,-100,0,0,100,0.00,40.00,0,-999,0,0.00
2013-8-28,68,58,50,-100,-100,-100,0,0,100,0.00,40.00,0,-999,0,0.00
2013-8-29,71,53,42,-100,-100,-100,0,0,100,0.00,40.00,0,-999,0,0.01
2013-8-30,64,55,47,-100,-100,-100,0,0,100,0.00,40.00,0,-999,0,0.02
2013-8-31,61,52,46,-100,-100,-100,0,0,100,0.00,40.00,0,-999,0,0.02
2013-9-1,64,53,45,-100,-100,-100,0,0,100,0.00,40.00,0,-999,0,0.01
2013-9-2,67,54,44,-100,-100,-100,0,0,100,0.00,40.00,0,-999,0,0.00
2013-9-3,68,54,44,-100,-100,-100,0,0,100,0.00,40.00,0,-999,0,0.00
2013-9-4,69,56,46,-100,-100,-100,0,0,100,0.00,40.00,0,-999,0,0.01
2013-9-5,72,56,45,-100,-100,-100,0,0,100,0.00,40.00,0,-999,0,0.01
2013-9-6,53,47,42,-100,-100,-100,0,0,100,0.00,40.00,0,-999,0,0.05
2013-9-7,68,54,44,-100,-100,-100,0,0,100,0.00,40.00,0,-999,0,0.00
2013-9-8,65,53,43,-100,-100,-100,0,0,100,0.00,40.00,0,-999,0,0.00
2013-9-9,57,50,42,-100,-100,-100,0,0,100,0.00,40.00,0,-999,0,0.01
2013-9-10,58,51,44,-100,-100,-100,0,0,100,0.00,40.00,0,-999,0,0.01
2013-9-11,58,51,43,-100,-100,-100,0,0,100,0.00,40.00,0,-999,0,0.02
2013-9-12,56,47,41,-100,-100,-100,0,0,100,0.00,40.00,0,-999,0,0.01
2013-9-13,55,48,43,-100,-100,-100,0,0,100,0.00,40.00,0,-999,0,0.02
2013-9-14,53,46,42,-100,-100,-100,0,0,100,0.00,40.00,0,-999,0,0.01
2013-9-15,53,44,38,-100,-100,-100,0,0,100,0.00,40.00,0,-999,0,0.01
2013-9-16,59,44,38,-100,-100,-100,0,0,100,0.00,40.00,0,-999,0,0.00
2013-9-17,61,47,37,-100,-100,-100,0,0,100,0.00,40.00,0,-999,0,0.00
2013-9-18,44,42,38,-100,-100,-100,0,0,100,0.00,40.00,0,-999,0,0.02
2013-9-19,52,42,33,-100,-100,-100,0,0,100,0.00,40.00,0,-999,0,0.01
2013-9-20,62,45,30,-100,-100,-100,0,0,100,0.00,40.00,0,-999,0,0.00
2013-9-21,60,44,35,-100,-100,-100,0,0,100,0.00,40.00,0,-999,0,0.00
2013-9-22,54,42,35,-100,-100,-100,0,0,100,0.00,40.00,0,-999,0,0.03
2013-9-23,40,35,32,-100,-100,-100,0,0,100,0.00,40.00,0,-999,0,0.02
2013-9-24,56,38,28,-100,-100,-100,0,0,100,0.00,40.00,0,-999,0,0.00
2013-9-25,61,47,32,-100,-100,-100,0,0,100,0.00,40.00,0,-999,0,0.00
2013-9-26,60,47,34,-100,-100,-100,0,0,100,0.00,40.00,0,-999,0,0.00
2013-9-27,42,34,26,-100,-100,-100,0,0,100,0.00,40.00,0,-999,0,0.02
2013-9-28,45,28,18,-100,-100,-100,0,0,100,0.00,40.00,0,-999,0,0.01
2013-9-29,55,38,26,-100,-100,-100,0,0,100,0.00,40.00,0,-999,0,0.00
2013-9-30,60,44,32,-100,-100,-100,0,0,100,0.00,40.00,0,-999,0,0.00
2013-10-1,36,36,36,-100,-100,-100,0,0,100,0.00,40.00,0,-999,0,0.00
2013-10-2,60,46,33,-100,-100,-100,0,0,100,0.00,40.00,0,-999,0,0.00
2013-10-3,56,44,34,-100,-100,-100,0,0,100,0.00,40.00,0,-999,0,0.00
2013-10-4,32,27,20,-100,-100,-100,0,0,100,0.00,40.00,0,-999,0,0.01
2013-10-5,38,27,19,-100,-100,-100,0,0,100,0.00,40.00,0,-999,0,0.01
2013-10-6,52,32,19,-100,-100,-100,0,0,100,0.00,40.00,0,-999,0,0.00
2013-10-7,59,36,27,-100,-100,-100,0,0,100,0.00,40.00,0,-999,0,0.00
2013-10-8,58,42,32,-100,-100,-100,0,0,100,0.00,40.00,0,-999,0,0.00
2013-10-9,54,40,30,-100,-100,-100,0,0,100,0.00,40.00,0,-999,0,0.00
2013-10-10,44,38,32,-100,-100,-100,0,0,100,0.00,40.00,0,-999,0,0.00
2013-10-11,35,31,29,-100,-100,-100,0,0,100,0.00,40.00,0,-999,0,0.01
2013-10-12,44,29,21,-100,-100,-100,0,0,100,0.00,40.00,0,-999,0,0.00
2013-10-13,50,39,27,-100,-100,-100,0,0,100,0.00,40.00,0,-999,0,0.00
2013-10-21,27,26,25,-100,-100,-100,0,0,100,0.00,40.00,0,-999,0,0.00
2013-10-22,49,33,20,-100,-100,-100,0,0,100,0.00,40.00,0,-999,0,0.00
2013-10-23,24,24,24,-100,-100,-100,0,0,100,0.00,40.00,0,-999,0,0.00
2013-10-24,50,40,30,-100,-100,-100,0,0,100,0.00,40.00,0,-999,0,0.00
2013-10-25,35,30,27,-100,-100,-100,0,0,100,0.00,40.00,0,-999,0,0.00
2013-10-26,30,28,27,-100,-100,-100,0,0,100,0.00,40.00,0,-999,0,0.00
2013-10-27,42,33,27,-100,-100,-100,0,0,100,0.00,40.00,0,-999,0,0.00
2013-11-12,45,29,23,-100,-100,-100,0,0,100,0.00,40.00,0,-999,0,0.00
2013-11-13,38,32,24,-100,-100,-100,0,0,100,0.00,40.00,0,-999,0,0.00
2013-11-14,35,27,20,-100,-100,-100,0,0,100,0.00,40.00,0,-999,0,0.00
2013-11-15,34,32,31,-100,-100,-100,0,0,100,0.00,40.00,0,-999,0,0.00
2013-11-16,24,23,21,-100,-100,-100,0,0,100,0.00,40.00,0,-999,0,0.00
2013-11-17,30,26,23,-100,-100,-100,0,0,100,0.00,40.00,0,-999,0,0.00
2013-11-18,35,18,10,-100,-100,-100,0,0,100,0.00,40.00,0,-999,0,0.00
2013-11-19,39,28,16,-100,-100,-100,0,0,100,0.00,40.00,0,-999,0,0.01
2013-11-20,29,29,28,-100,-100,-100,0,0,100,0.00,40.00,0,-999,0,0.01
2013-11-21,33,30,27,-100,-100,-100,0,0,100,0.00,40.00,0,-999,0,0.01
2013-11-22,28,26,24,-100,-100,-100,0,0,100,0.00,40.00,0,-999,0,0.00
2013-11-23,33,26,19,-100,-100,-100,0,0,100,0.00,40.00,0,-999,0,0.00
2013-11-24,30,27,23,-100,-100,-100,0,0,100,0.00,40.00,0,-999,0,0.00
2013-11-25,25,22,17,-100,-100,-100,0,0,100,0.00,40.00,0,-999,0,0.00
2013-11-26,27,18,13,-100,-100,-100,0,0,100,0.00,40.00,0,-999,0,0.00
2013-11-27,30,20,12,-100,-100,-100,0,0,100,0.00,40.00,0,-999,0,0.00
2013-11-28,38,22,15,-100,-100,-100,0,0,100,0.00,40.00,0,-999,0,0.00
2013-11-29,34,21,13,-100,-100,-100,0,0,100,0.00,40.00,0,-999,0,0.00
2013-11-30,27,15,10,-100,-100,-100,0,0,100,0.00,40.00,0,-999,0,0.00
2013-12-1,33,21,10,-100,-100,-100,0,0,100,0.00,40.00,0,-999,0,0.00
2013-12-2,33,32,29,-100,-100,-100,0,0,100,0.00,40.00,0,-999,0,0.00
2013-12-3,30,29,28,-100,-100,-100,0,0,100,0.00,40.00,0,-999,0,0.00
2013-12-4,28,14,4,-100,-100,-100,0,0,100,0.00,40.00,0,-999,0,0.02
2013-12-5,9,-3,-15,-100,-100,-100,0,0,100,0.00,40.00,0,-999,0,0.01
2013-12-6,7,-5,-13,-100,-100,-100,0,0,100,0.00,40.00,0,-999,0,0.00
2013-12-7,17,10,5,-100,-100,-100,0,0,100,0.00,40.00,0,-999,0,0.00
2013-12-8,11,5,-3,-100,-100,-100,0,0,100,0.00,40.00,0,-999,0,0.02
2013-12-9,1,-9,-15,-100,-100,-100,0,0,100,0.00,40.00,0,-999,0,0.03
2013-12-10,20,11,-10,-100,-100,-100,0,0,100,0.00,40.00,0,-999,0,0.00
2013-12-11,23,10,1,-100,-100,-100,0,0,100,0.00,40.00,0,-999,0,0.00
2013-12-12,9,8,6,-100,-100,-100,0,0,100,0.00,40.00,0,-999,0,0.00
2013-12-13,27,19,10,-100,-100,-100,0,0,100,0.00,40.00,0,-999,0,0.00
2013-12-14,10,7,5,-100,-100,-100,0,0,100,0.00,40.00,0,-999,0,0.00
2013-12-15,20,20,20,-100,-100,-100,0,0,100,0.00,40.00,0,-999,0,0.00
2013-12-16,36,20,15,-100,-100,-100,0,0,100,0.00,40.00,0,-999,0,0.00
2013-12-17,21,17,14,-100,-100,-100,0,0,100,0.00,40.00,0,-999,0,0.00
2013-12-18,21,18,16,-100,-100,-100,0,0,100,0.00,40.00,0,-999,0,0.00
2013-12-19,36,28,21,-100,-100,-100,0,0,100,0.00,40.00,0,-999,0,0.00
2013-12-20,24,22,21,-100,-100,-100,0,0,100,0.00,40.00,0,-999,0,0.01
2013-12-21,19,11,2,-100,-100,-100,0,0,100,0.00,40.00,0,-999,0,0.01
2013-12-22,18,14,6,-100,-100,-100,0,0,100,0.00,40.00,0,-999,0,0.00
2013-12-23,25,19,16,-100,-100,-100,0,0,100,0.00,40.00,0,-999,0,0.01
2013-12-24,28,22,9,-100,-100,-100,0,0,100,0.00,40.00,0,-999,0,0.01
2013-12-25,16,6,-1,-100,-100,-100,0,0,100,0.00,40.00,0,-999,0,0.01
2013-12-26,28,14,4,-100,-100,-100,0,0,100,0.00,40.00,0,-999,0,0.00
2013-12-27,34,18,11,-100,-100,-100,0,0,100,0.00,40.00,0,-999,0,0.00
2013-12-28,28,23,17,-100,-100,-100,0,0,100,0.00,40.00,0,-999,0,0.00
2013-12-29,22,20,17,-100,-100,-100,0,0,100,0.00,40.00,0,-999,0,0.00
2013-12-30,23,19,13,-100,-100,-100,0,0,100,0.00,40.00,0,-999,0,0.00
2013-12-31,28,23,16,-100,-100,-100,0,0,100,0.00,40.00,0,-999,0,0.01
2014-1-1,25,19,7,-100,-100,-100,0,0,100,0.00,40.00,0,-999,0,0.02
2014-1-2,20,12,7,-100,-100,-100,0,0,100,0.00,40.00,0,-999,0,0.00